Year,Month,Day,Hour,Minute,Value (Times are PST for temperature in C)
2010,02,19,09,13,3.20
2010,02,19,09,14,3.20
2010,02,19,09,15,3.20
2010,02,19,09,16,3.30
2010,02,19,09,17,3.30
2010,02,19,09,18,3.30
2010,02,19,09,19,3.30
2010,02,19,09,20,3.40
2010,02,19,09,21,3.40
2010,02,19,09,22,3.40
2010,02,19,09,23,3.50
2010,02,19,09,24,3.50
2010,02,19,09,25,3.60
2010,02,19,09,26,3.70
2010,02,19,09,27,3.70
2010,02,19,09,28,3.80
2010,02,19,09,29,3.90
2010,02,19,09,30,4.00
2010,02,19,09,31,4.00
2010,02,19,09,32,4.10
2010,02,19,09,33,4.10
2010,02,19,09,34,4.10
2010,02,19,09,35,4.20
2010,02,19,09,36,4.20
2010,02,19,09,37,4.20
2010,02,19,09,38,4.30
2010,02,19,09,39,4.30
2010,02,19,09,40,4.30
2010,02,19,09,41,4.40
2010,02,19,09,42,4.40
2010,02,19,09,43,4.50
2010,02,19,09,44,4.60
2010,02,19,09,45,4.70
2010,02,19,09,46,4.70
2010,02,19,09,47,4.70
2010,02,19,09,48,4.80
2010,02,19,09,49,4.80
2010,02,19,09,50,4.90
2010,02,19,09,51,4.90
2010,02,19,09,52,5.00
2010,02,19,09,53,5.10
2010,02,19,09,54,5.10
2010,02,19,09,55,5.10
2010,02,19,09,56,5.10
2010,02,19,09,57,5.10
2010,02,19,09,58,5.10
2010,02,19,09,59,5.10
2010,02,19,10,00,5.10
2010,02,19,10,01,5.10
2010,02,19,10,02,5.20
2010,02,19,10,03,5.20
2010,02,19,10,04,5.20
2010,02,19,10,05,5.30
2010,02,19,10,06,5.30
2010,02,19,10,07,5.30
2010,02,19,10,08,5.30
2010,02,19,10,09,5.30
2010,02,19,10,10,5.30
2010,02,19,10,11,5.30
2010,02,19,10,12,5.30
2010,02,19,10,13,5.40
2010,02,19,10,14,5.50
2010,02,19,10,15,5.60
2010,02,19,10,16,5.70
2010,02,19,10,17,5.80
2010,02,19,10,18,6.00
2010,02,19,10,19,6.10
2010,02,19,10,20,6.10
2010,02,19,10,21,6.20
2010,02,19,10,22,6.20
2010,02,19,10,23,6.20
2010,02,19,10,24,6.20
2010,02,19,10,25,6.20
2010,02,19,10,26,6.30
2010,02,19,10,27,6.40
2010,02,19,10,28,6.40
2010,02,19,10,29,6.50
2010,02,19,10,30,6.50
2010,02,19,10,31,6.60
2010,02,19,10,32,6.70
2010,02,19,10,33,6.70
2010,02,19,10,34,6.80
2010,02,19,10,35,6.90
2010,02,19,10,36,6.90
2010,02,19,10,37,7.00
2010,02,19,10,38,7.00
2010,02,19,10,39,7.10
2010,02,19,10,40,7.20
2010,02,19,10,41,7.20
2010,02,19,10,42,7.20
2010,02,19,10,43,7.30
2010,02,19,10,44,7.30
2010,02,19,10,45,7.30
2010,02,19,10,46,7.30
2010,02,19,10,47,7.30
2010,02,19,10,48,7.20
2010,02,19,10,49,7.20
2010,02,19,10,50,7.30
2010,02,19,10,51,7.30
2010,02,19,10,52,7.40
2010,02,19,10,53,7.40
2010,02,19,10,54,7.50
2010,02,19,10,55,7.50
2010,02,19,10,56,7.60
2010,02,19,10,57,7.60
2010,02,19,10,58,7.50
2010,02,19,10,59,7.50
2010,02,19,11,00,7.60
2010,02,19,11,01,7.60
2010,02,19,11,02,7.60
2010,02,19,11,03,7.60
2010,02,19,11,04,7.60
2010,02,19,11,05,7.60
2010,02,19,11,06,7.50
2010,02,19,11,07,7.40
2010,02,19,11,08,7.40
2010,02,19,11,09,7.40
2010,02,19,11,10,7.40
2010,02,19,11,11,7.50
2010,02,19,11,12,7.50
2010,02,19,11,13,7.60
2010,02,19,11,14,7.60
2010,02,19,11,15,7.70
2010,02,19,11,16,7.80
2010,02,19,11,17,7.90
2010,02,19,11,18,7.90
2010,02,19,11,19,8.00
2010,02,19,11,20,8.10
2010,02,19,11,21,8.10
2010,02,19,11,22,8.20
2010,02,19,11,23,8.20
2010,02,19,11,24,8.30
2010,02,19,11,25,8.30
2010,02,19,11,26,8.30
2010,02,19,11,27,8.40
2010,02,19,11,28,8.50
2010,02,19,11,29,8.50
2010,02,19,11,30,8.60
2010,02,19,11,31,8.70
2010,02,19,11,32,8.80
2010,02,19,11,33,8.80
2010,02,19,11,34,8.90
2010,02,19,11,35,8.90
2010,02,19,11,36,8.90
2010,02,19,11,37,8.90
2010,02,19,11,38,8.80
2010,02,19,11,39,8.60
2010,02,19,11,40,8.50
2010,02,19,11,41,8.40
2010,02,19,11,42,8.30
2010,02,19,11,43,8.20
2010,02,19,11,44,8.20
2010,02,19,11,45,8.20
2010,02,19,11,46,8.20
2010,02,19,11,47,8.20
2010,02,19,11,48,8.20
2010,02,19,11,49,8.30
2010,02,19,11,50,8.30
2010,02,19,11,51,8.30
2010,02,19,11,52,8.40
2010,02,19,11,53,8.50
2010,02,19,11,54,8.50
2010,02,19,11,55,8.60
2010,02,19,11,56,8.60
2010,02,19,11,57,8.60
2010,02,19,11,58,8.60
2010,02,19,11,59,8.60
2010,02,19,12,00,8.60
2010,02,19,12,01,8.60
2010,02,19,12,02,8.60
2010,02,19,12,03,8.50
2010,02,19,12,04,8.50
2010,02,19,12,05,8.40
2010,02,19,12,06,8.40
2010,02,19,12,07,8.40
2010,02,19,12,08,8.40
2010,02,19,12,09,8.40
2010,02,19,12,10,8.30
2010,02,19,12,11,8.30
2010,02,19,12,12,8.20
2010,02,19,12,13,8.20
2010,02,19,12,14,8.20
2010,02,19,12,15,8.30
2010,02,19,12,16,8.30
2010,02,19,12,17,8.40
2010,02,19,12,18,8.40
2010,02,19,12,19,8.40
2010,02,19,12,20,8.40
2010,02,19,12,21,8.40
2010,02,19,12,22,8.50
2010,02,19,12,23,8.50
2010,02,19,12,24,8.60
2010,02,19,12,25,8.60
2010,02,19,12,26,8.70
2010,02,19,12,27,8.70
2010,02,19,12,28,8.70
2010,02,19,12,29,8.70
2010,02,19,12,30,8.70
2010,02,19,12,31,8.80
2010,02,19,12,32,8.80
2010,02,19,12,33,8.90
2010,02,19,12,34,8.90
2010,02,19,12,35,8.90
2010,02,19,12,36,9.00
2010,02,19,12,37,9.10
2010,02,19,12,38,9.20
2010,02,19,12,39,9.20
2010,02,19,12,40,9.20
2010,02,19,12,41,9.20
2010,02,19,12,42,9.10
2010,02,19,12,43,9.10
2010,02,19,12,44,9.10
2010,02,19,12,45,9.10
2010,02,19,12,46,9.10
2010,02,19,12,47,9.10
2010,02,19,12,48,9.10
2010,02,19,12,49,9.10
2010,02,19,12,50,9.10
2010,02,19,12,51,9.10
2010,02,19,12,52,9.10
2010,02,19,12,53,9.10
2010,02,19,12,54,9.10
2010,02,19,12,55,9.10
2010,02,19,12,56,9.20
2010,02,19,12,57,9.20
2010,02,19,12,58,9.30
2010,02,19,12,59,9.30
2010,02,19,13,00,9.30
2010,02,19,13,01,9.20
2010,02,19,13,02,9.10
2010,02,19,13,03,9.10
2010,02,19,13,04,9.10
2010,02,19,13,05,9.10
2010,02,19,13,06,9.20
2010,02,19,13,07,9.20
2010,02,19,13,08,9.30
2010,02,19,13,09,9.30
2010,02,19,13,10,9.40
2010,02,19,13,11,9.50
2010,02,19,13,12,9.50
2010,02,19,13,13,9.60
2010,02,19,13,14,9.60
2010,02,19,13,15,9.50
2010,02,19,13,16,9.50
2010,02,19,13,17,9.40
2010,02,19,13,18,9.40
2010,02,19,13,19,9.40
2010,02,19,13,20,9.50
2010,02,19,13,21,9.60
2010,02,19,13,22,9.60
2010,02,19,13,23,9.70
2010,02,19,13,24,9.70
2010,02,19,13,25,9.70
2010,02,19,13,26,9.70
2010,02,19,13,27,9.70
2010,02,19,13,28,9.70
2010,02,19,13,29,9.70
2010,02,19,13,30,9.70
2010,02,19,13,31,9.70
2010,02,19,13,32,9.80
2010,02,19,13,33,9.80
2010,02,19,13,34,9.80
2010,02,19,13,35,9.90
2010,02,19,13,36,9.90
2010,02,19,13,37,9.90
2010,02,19,13,38,9.90
2010,02,19,13,39,9.90
2010,02,19,13,40,9.90
2010,02,19,13,41,9.90
2010,02,19,13,42,9.80
2010,02,19,13,43,9.80
2010,02,19,13,44,9.80
2010,02,19,13,45,9.70
2010,02,19,13,46,9.60
2010,02,19,13,47,9.60
2010,02,19,13,48,9.60
2010,02,19,13,49,9.50
2010,02,19,13,50,9.50
2010,02,19,13,51,9.50
2010,02,19,13,52,9.40
2010,02,19,13,53,9.40
2010,02,19,13,54,9.40
2010,02,19,13,55,9.50
2010,02,19,13,56,9.50
2010,02,19,13,57,9.50
2010,02,19,13,58,9.50
2010,02,19,13,59,9.40
2010,02,19,14,00,9.40
2010,02,19,14,01,9.50
2010,02,19,14,02,9.50
2010,02,19,14,03,9.60
2010,02,19,14,04,9.60
2010,02,19,14,05,9.60
2010,02,19,14,06,9.60
2010,02,19,14,07,9.60
2010,02,19,14,08,9.60
2010,02,19,14,09,9.70
2010,02,19,14,10,9.70
2010,02,19,14,11,9.80
2010,02,19,14,12,9.80
2010,02,19,14,13,9.90
2010,02,19,14,14,9.90
2010,02,19,14,15,9.80
2010,02,19,14,16,9.80
2010,02,19,14,17,9.90
2010,02,19,14,18,9.90
2010,02,19,14,19,9.90
2010,02,19,14,20,10.00
2010,02,19,14,21,10.00
2010,02,19,14,22,10.00
2010,02,19,14,23,9.90
2010,02,19,14,24,9.90
2010,02,19,14,25,9.80
2010,02,19,14,26,9.80
2010,02,19,14,27,9.80
2010,02,19,14,28,9.80
2010,02,19,14,29,9.80
2010,02,19,14,30,9.80
2010,02,19,14,31,9.80
2010,02,19,14,32,9.80
2010,02,19,14,33,9.90
2010,02,19,14,34,9.90
2010,02,19,14,35,10.00
2010,02,19,14,36,10.00
2010,02,19,14,37,10.00
2010,02,19,14,38,9.90
2010,02,19,14,39,9.90
2010,02,19,14,40,9.80
2010,02,19,14,41,9.80
2010,02,19,14,42,9.80
2010,02,19,14,43,9.80
2010,02,19,14,44,9.80
2010,02,19,14,45,9.80
2010,02,19,14,46,9.80
2010,02,19,14,47,9.90
2010,02,19,14,48,9.90
2010,02,19,14,49,9.90
2010,02,19,14,50,10.00
2010,02,19,14,51,10.00
2010,02,19,14,52,10.10
2010,02,19,14,53,10.10
2010,02,19,14,54,10.20
2010,02,19,14,55,10.20
2010,02,19,14,56,10.20
2010,02,19,14,57,10.20
2010,02,19,14,58,10.20
2010,02,19,14,59,10.20
2010,02,19,15,00,10.20
2010,02,19,15,01,10.30
2010,02,19,15,02,10.20
2010,02,19,15,03,10.20
2010,02,19,15,04,10.20
2010,02,19,15,05,10.20
2010,02,19,15,06,10.30
2010,02,19,15,07,10.30
2010,02,19,15,08,10.40
2010,02,19,15,09,10.50
2010,02,19,15,10,10.60
2010,02,19,15,11,10.70
2010,02,19,15,12,10.80
2010,02,19,15,13,10.90
2010,02,19,15,14,11.00
2010,02,19,15,15,11.10
2010,02,19,15,16,11.20
2010,02,19,15,17,11.30
2010,02,19,15,18,11.30
2010,02,19,15,19,11.40
2010,02,19,15,20,11.50
2010,02,19,15,21,11.50
2010,02,19,15,22,11.60
2010,02,19,15,23,11.60
2010,02,19,15,24,11.60
2010,02,19,15,25,11.60
2010,02,19,15,26,11.60
2010,02,19,15,27,11.50
2010,02,19,15,28,11.50
2010,02,19,15,29,11.40
2010,02,19,15,30,11.30
2010,02,19,15,31,11.20
2010,02,19,15,32,11.20
2010,02,19,15,33,11.20
2010,02,19,15,34,11.10
2010,02,19,15,35,11.00
2010,02,19,15,36,11.00
2010,02,19,15,37,10.90
2010,02,19,15,38,10.90
2010,02,19,15,39,10.90
2010,02,19,15,40,10.90
2010,02,19,15,41,10.90
2010,02,19,15,42,10.90
2010,02,19,15,43,10.90
2010,02,19,15,44,10.90
2010,02,19,15,45,11.00
2010,02,19,15,46,10.90
2010,02,19,15,47,11.00
2010,02,19,15,48,11.00
2010,02,19,15,49,11.00
2010,02,19,15,50,11.00
2010,02,19,15,51,11.00
2010,02,19,15,52,11.00
2010,02,19,15,53,11.00
2010,02,19,15,54,11.00
2010,02,19,15,55,11.00
2010,02,19,15,56,11.00
2010,02,19,15,57,11.10
2010,02,19,15,58,11.10
2010,02,19,15,59,11.10
2010,02,19,16,00,11.00
2010,02,19,16,01,11.00
2010,02,19,16,02,10.90
2010,02,19,16,03,10.80
2010,02,19,16,04,10.80
2010,02,19,16,05,10.80
2010,02,19,16,06,10.80
2010,02,19,16,07,10.80
2010,02,19,16,08,10.80
2010,02,19,16,09,10.80
2010,02,19,16,10,10.80
2010,02,19,16,11,10.80
2010,02,19,16,12,10.80
2010,02,19,16,13,10.80
2010,02,19,16,14,10.70
2010,02,19,16,15,10.70
2010,02,19,16,16,10.70
2010,02,19,16,17,10.70
2010,02,19,16,18,10.70
2010,02,19,16,19,10.70
2010,02,19,16,20,10.70
2010,02,19,16,21,10.70
2010,02,19,16,22,10.70
2010,02,19,16,23,10.70
2010,02,19,16,24,10.70
2010,02,19,16,25,10.70
2010,02,19,16,26,10.70
2010,02,19,16,27,10.70
2010,02,19,16,28,10.70
2010,02,19,16,29,10.70
2010,02,19,16,30,10.70
2010,02,19,16,31,10.60
2010,02,19,16,32,10.50
2010,02,19,16,33,10.40
2010,02,19,16,34,10.30
2010,02,19,16,35,10.20
2010,02,19,16,36,10.00
2010,02,19,16,37,9.90
2010,02,19,16,38,9.80
2010,02,19,16,39,9.70
2010,02,19,16,40,9.60
2010,02,19,16,41,9.50
2010,02,19,16,42,9.30
2010,02,19,16,43,9.20
2010,02,19,16,44,9.10
2010,02,19,16,45,9.00
2010,02,19,16,46,9.00
2010,02,19,16,47,8.90
2010,02,19,16,48,8.80
2010,02,19,16,49,8.70
2010,02,19,16,50,8.70
2010,02,19,16,51,8.60
2010,02,19,16,52,8.50
2010,02,19,16,53,8.50
2010,02,19,16,54,8.40
2010,02,19,16,55,8.40
2010,02,19,16,56,8.30
2010,02,19,16,57,8.20
2010,02,19,16,58,8.20
2010,02,19,16,59,8.10
2010,02,19,17,00,8.10
2010,02,19,17,01,8.00
2010,02,19,17,02,8.00
2010,02,19,17,03,7.90
2010,02,19,17,04,7.80
2010,02,19,17,05,7.80
2010,02,19,17,06,7.70
2010,02,19,17,07,7.70
2010,02,19,17,08,7.60
2010,02,19,17,09,7.60
2010,02,19,17,10,7.50
2010,02,19,17,11,7.50
2010,02,19,17,12,7.40
2010,02,19,17,13,7.40
2010,02,19,17,14,7.30
2010,02,19,17,15,7.30
2010,02,19,17,16,7.20
2010,02,19,17,17,7.20
2010,02,19,17,18,7.10
2010,02,19,17,19,7.10
2010,02,19,17,20,7.10
2010,02,19,17,21,7.10
2010,02,19,17,22,7.10
2010,02,19,17,23,7.10
2010,02,19,17,24,7.10
2010,02,19,17,25,7.10
2010,02,19,17,26,7.10
2010,02,19,17,27,7.10
2010,02,19,17,28,7.10
2010,02,19,17,29,7.10
